Time,TemperatureF,DewpointF,PressureIn,WindDirection,WindDirectionDegrees,WindSpeedMPH,WindSpeedGustMPH,Humidity,HourlyPrecipIn,Conditions,Clouds,dailyrainin,SoftwareType,DateUTC
2013-12-01 00:00:00,51.6,44.0,30.17,NNE,22,0.0,0.0,75,0.00,,,0.00,tws,2013-12-01 07:00:00,
2013-12-01 00:10:00,51.2,43.7,30.17,North,0,0.9,2.4,75,0.00,,,0.00,tws,2013-12-01 07:10:00,
2013-12-01 00:20:00,51.0,43.6,30.16,West,270,1.3,1.8,75,0.00,,,0.00,tws,2013-12-01 07:20:00,
2013-12-01 00:30:00,50.8,43.6,30.17,WSW,247,1.7,2.5,76,0.00,,,0.00,tws,2013-12-01 07:30:00,
2013-12-01 00:40:00,50.8,43.7,30.16,SW,225,2.0,2.6,76,0.00,,,0.00,tws,2013-12-01 07:40:00,
2013-12-01 00:50:00,50.8,43.8,30.17,West,270,0.2,0.7,76,0.00,,,0.00,tws,2013-12-01 07:50:00,
2013-12-01 01:00:00,50.8,43.8,30.16,NNW,337,1.2,2.4,76,0.00,,,0.00,tws,2013-12-01 08:00:00,
2013-12-01 01:10:00,50.8,43.9,30.15,NNW,337,1.3,1.5,77,0.00,,,0.00,tws,2013-12-01 08:10:00,
2013-12-01 01:20:00,50.7,43.9,30.15,NW,315,0.9,1.4,77,0.00,,,0.00,tws,2013-12-01 08:20:00,
2013-12-01 01:30:00,50.5,43.8,30.16,NW,315,1.9,2.5,77,0.00,,,0.00,tws,2013-12-01 08:30:00,
2013-12-01 01:40:00,50.3,43.7,30.16,West,270,1.4,2.3,77,0.00,,,0.00,tws,2013-12-01 08:40:00,
2013-12-01 01:50:00,50.2,43.6,30.15,NW,315,1.6,2.2,78,0.00,,,0.00,tws,2013-12-01 08:50:00,
2013-12-01 02:00:00,49.8,43.3,30.15,SW,225,2.0,2.7,78,0.00,,,0.00,tws,2013-12-01 09:00:00,
2013-12-01 02:10:00,49.6,43.1,30.15,West,270,2.2,3.2,78,0.00,,,0.00,tws,2013-12-01 09:10:00,
2013-12-01 02:20:00,49.4,43.0,30.15,WSW,247,1.8,2.4,78,0.00,,,0.00,tws,2013-12-01 09:20:00,
2013-12-01 02:30:00,49.2,42.8,30.15,WSW,247,1.2,2.2,78,0.00,,,0.00,tws,2013-12-01 09:30:00,
2013-12-01 02:40:00,49.2,42.9,30.15,WNW,292,1.8,2.2,78,0.00,,,0.00,tws,2013-12-01 09:40:00,
2013-12-01 02:50:00,49.2,43.0,30.15,NW,315,1.4,1.9,78,0.00,,,0.00,tws,2013-12-01 09:50:00,
2013-12-01 03:00:00,49.2,43.1,30.15,NW,315,0.6,1.4,79,0.00,,,0.00,tws,2013-12-01 10:00:00,
2013-12-01 03:10:00,49.2,43.2,30.15,NW,315,0.6,1.8,79,0.00,,,0.00,tws,2013-12-01 10:10:00,
2013-12-01 03:20:00,49.2,43.2,30.15,NW,315,0.8,2.2,79,0.00,,,0.00,tws,2013-12-01 10:20:00,
2013-12-01 03:30:00,49.1,43.2,30.15,NW,315,1.3,2.0,79,0.00,,,0.00,tws,2013-12-01 10:30:00,
2013-12-01 03:40:00,49.0,43.1,30.15,NW,315,2.1,2.6,79,0.00,,,0.00,tws,2013-12-01 10:40:00,
2013-12-01 03:50:00,49.0,43.3,30.15,NW,315,2.2,2.5,80,0.00,,,0.00,tws,2013-12-01 10:50:00,
2013-12-01 04:00:00,48.9,43.1,30.15,NW,315,2.5,3.9,80,0.00,,,0.00,tws,2013-12-01 11:00:00,
2013-12-01 04:10:00,48.9,43.1,30.15,NW,315,3.2,3.9,80,0.00,,,0.00,tws,2013-12-01 11:10:00,
2013-12-01 04:20:00,49.1,43.4,30.14,NW,315,1.1,2.1,80,0.00,,,0.00,tws,2013-12-01 11:20:00,
2013-12-01 04:30:00,49.3,43.5,30.15,WNW,292,2.6,3.3,80,0.00,,,0.00,tws,2013-12-01 11:30:00,
2013-12-01 04:40:00,49.6,43.6,30.15,WSW,247,1.2,2.2,79,0.00,,,0.00,tws,2013-12-01 11:40:00,
2013-12-01 04:50:00,49.7,43.8,30.15,North,0,1.7,2.7,79,0.00,,,0.00,tws,2013-12-01 11:50:00,
2013-12-01 05:00:00,49.9,43.6,30.15,NW,315,1.5,2.0,78,0.00,,,0.00,tws,2013-12-01 12:00:00,
2013-12-01 05:10:00,49.9,43.6,30.15,NNE,22,1.4,1.9,78,0.00,,,0.00,tws,2013-12-01 12:10:00,
2013-12-01 05:20:00,49.8,43.3,30.15,NW,315,1.6,2.3,78,0.00,,,0.00,tws,2013-12-01 12:20:00,
2013-12-01 05:30:00,49.7,43.3,30.16,NNW,337,2.4,3.1,78,0.00,,,0.00,tws,2013-12-01 12:30:00,
2013-12-01 05:40:00,49.7,43.3,30.17,NE,45,2.1,2.6,78,0.00,,,0.00,tws,2013-12-01 12:40:00,
2013-12-01 05:50:00,49.7,43.2,30.17,NW,315,3.4,4.7,78,0.00,,,0.00,tws,2013-12-01 12:50:00,
2013-12-01 06:00:00,49.7,43.1,30.17,NW,315,4.1,4.5,77,0.00,,,0.00,tws,2013-12-01 13:00:00,
2013-12-01 06:10:00,49.8,43.3,30.16,NW,315,3.9,5.4,77,0.00,,,0.00,tws,2013-12-01 13:10:00,
2013-12-01 06:20:00,49.9,43.4,30.17,NW,315,4.4,4.9,78,0.00,,,0.00,tws,2013-12-01 13:20:00,
2013-12-01 06:30:00,50.0,43.4,30.18,NW,315,3.8,4.8,77,0.00,,,0.00,tws,2013-12-01 13:30:00,
2013-12-01 06:40:00,50.1,43.6,30.17,NNW,337,2.9,3.7,78,0.00,,,0.00,tws,2013-12-01 13:40:00,
2013-12-01 06:50:00,50.3,43.7,30.18,NW,315,3.4,4.2,77,0.00,,,0.00,tws,2013-12-01 13:50:00,
2013-12-01 07:00:00,50.5,43.5,30.18,NW,315,4.1,5.3,76,0.00,,,0.00,tws,2013-12-01 14:00:00,
2013-12-01 07:10:00,50.5,43.4,30.19,NW,315,3.0,4.6,76,0.00,,,0.00,tws,2013-12-01 14:10:00,
2013-12-01 07:20:00,50.6,43.1,30.20,ENE,67,1.9,2.3,75,0.00,,,0.00,tws,2013-12-01 14:20:00,
2013-12-01 07:30:00,50.4,42.7,30.19,North,0,2.0,2.6,74,0.00,,,0.00,tws,2013-12-01 14:30:00,
2013-12-01 07:40:00,50.2,42.6,30.19,North,0,2.0,2.1,74,0.00,,,0.00,tws,2013-12-01 14:40:00,
2013-12-01 07:50:00,49.9,42.3,30.20,North,0,1.7,1.9,74,0.00,,,0.00,tws,2013-12-01 14:50:00,
2013-12-01 08:00:00,49.8,42.4,30.21,North,0,0.1,0.5,75,0.00,,,0.00,tws,2013-12-01 15:00:00,
2013-12-01 08:10:00,49.8,42.5,30.21,SW,225,1.0,2.8,75,0.00,,,0.00,tws,2013-12-01 15:10:00,
2013-12-01 08:20:00,50.3,43.0,30.21,NNE,22,1.2,2.1,75,0.00,,,0.00,tws,2013-12-01 15:20:00,
2013-12-01 08:40:00,53.7,45.3,30.21,SE,135,0.0,0.0,72,0.00,,,0.00,tws,2013-12-01 15:40:00,
2013-12-01 08:50:00,55.9,46.4,30.21,ESE,112,0.4,1.6,70,0.00,,,0.00,tws,2013-12-01 15:50:00,
2013-12-01 09:00:00,58.7,47.4,30.22,SE,135,0.8,1.6,65,0.00,,,0.00,tws,2013-12-01 16:00:00,
2013-12-01 09:10:00,61.2,47.4,30.23,NE,45,1.4,2.6,60,0.00,,,0.00,tws,2013-12-01 16:10:00,
2013-12-01 09:20:00,63.3,47.8,30.22,East,90,2.1,3.3,56,0.00,,,0.00,tws,2013-12-01 16:20:00,
2013-12-01 09:30:00,64.9,48.1,30.23,ESE,112,1.9,2.5,54,0.00,,,0.00,tws,2013-12-01 16:30:00,
2013-12-01 09:40:00,66.5,48.1,30.23,SE,135,2.5,3.9,51,0.00,,,0.00,tws,2013-12-01 16:40:00,
2013-12-01 09:50:00,67.7,48.4,30.23,SE,135,2.6,3.3,49,0.00,,,0.00,tws,2013-12-01 16:50:00,
2013-12-01 10:00:00,68.5,48.4,30.23,East,90,2.8,3.5,48,0.00,,,0.00,tws,2013-12-01 17:00:00,
2013-12-01 10:10:00,68.9,48.5,30.22,ENE,67,1.9,3.4,47,0.00,,,0.00,tws,2013-12-01 17:10:00,
2013-12-01 10:20:00,68.9,48.1,30.22,North,0,2.6,3.4,47,0.00,,,0.00,tws,2013-12-01 17:20:00,
2013-12-01 10:30:00,68.4,47.9,30.22,NE,45,2.1,3.0,47,0.00,,,0.00,tws,2013-12-01 17:30:00,
2013-12-01 10:40:00,68.0,47.8,30.22,East,90,1.8,3.0,48,0.00,,,0.00,tws,2013-12-01 17:40:00,
2013-12-01 10:50:00,67.6,47.8,30.22,South,180,1.7,2.4,48,0.00,,,0.00,tws,2013-12-01 17:50:00,
2013-12-01 11:00:00,67.4,47.6,30.22,SE,135,1.5,2.7,48,0.00,,,0.00,tws,2013-12-01 18:00:00,
2013-12-01 11:10:00,66.8,47.7,30.21,South,180,1.8,3.0,49,0.00,,,0.00,tws,2013-12-01 18:10:00,
2013-12-01 11:20:00,66.3,47.3,30.21,SW,225,1.3,2.0,49,0.00,,,0.00,tws,2013-12-01 18:20:00,
2013-12-01 11:30:00,66.2,47.1,30.21,ESE,112,2.4,3.2,49,0.00,,,0.00,tws,2013-12-01 18:30:00,
2013-12-01 11:40:00,66.3,47.2,30.19,NE,45,2.1,3.2,49,0.00,,,0.00,tws,2013-12-01 18:40:00,
2013-12-01 11:50:00,66.6,47.1,30.20,East,90,2.4,4.0,49,0.00,,,0.00,tws,2013-12-01 18:50:00,
2013-12-01 12:00:00,67.1,47.3,30.19,SE,135,2.4,3.0,48,0.00,,,0.00,tws,2013-12-01 19:00:00,
2013-12-01 12:10:00,67.1,47.4,30.19,SE,135,3.1,5.6,48,0.00,,,0.00,tws,2013-12-01 19:10:00,
2013-12-01 12:20:00,67.0,47.1,30.19,SSE,157,2.7,4.3,48,0.00,,,0.00,tws,2013-12-01 19:20:00,
2013-12-01 12:30:00,67.2,47.1,30.18,NE,45,2.8,5.3,48,0.00,,,0.00,tws,2013-12-01 19:30:00,
2013-12-01 12:40:00,67.4,46.8,30.18,South,180,4.2,4.9,47,0.00,,,0.00,tws,2013-12-01 19:40:00,
2013-12-01 12:50:00,67.0,47.0,30.17,ENE,67,3.8,5.8,48,0.00,,,0.00,tws,2013-12-01 19:50:00,
2013-12-01 13:00:00,67.1,47.6,30.17,South,180,3.1,4.6,49,0.00,,,0.00,tws,2013-12-01 20:00:00,
2013-12-01 13:10:00,67.5,47.4,30.16,North,0,3.5,5.3,48,0.00,,,0.00,tws,2013-12-01 20:10:00,
2013-12-01 13:20:00,67.8,47.3,30.15,South,180,2.5,4.4,47,0.00,,,0.00,tws,2013-12-01 20:20:00,
2013-12-01 13:30:00,68.1,47.4,30.15,South,180,3.6,4.9,46,0.00,,,0.00,tws,2013-12-01 20:30:00,
2013-12-01 13:40:00,68.5,47.7,30.14,South,180,2.2,5.1,47,0.00,,,0.00,tws,2013-12-01 20:40:00,
2013-12-01 13:50:00,69.0,47.5,30.14,SE,135,2.8,3.4,45,0.00,,,0.00,tws,2013-12-01 20:50:00,
2013-12-01 14:00:00,69.5,48.0,30.14,South,180,3.4,4.9,45,0.00,,,0.00,tws,2013-12-01 21:00:00,
2013-12-01 14:10:00,69.9,47.8,30.14,SW,225,5.1,7.2,44,0.00,,,0.00,tws,2013-12-01 21:10:00,
2013-12-01 14:20:00,70.1,48.3,30.15,South,180,5.0,7.3,45,0.00,,,0.00,tws,2013-12-01 21:20:00,
2013-12-01 14:30:00,70.3,48.7,30.14,SW,225,5.6,8.2,45,0.00,,,0.00,tws,2013-12-01 21:30:00,
2013-12-01 14:40:00,70.0,48.2,30.14,SW,225,5.8,7.4,45,0.00,,,0.00,tws,2013-12-01 21:40:00,
2013-12-01 14:50:00,69.7,48.2,30.14,South,180,5.3,6.1,45,0.00,,,0.00,tws,2013-12-01 21:50:00,
2013-12-01 15:00:00,69.7,48.0,30.14,WSW,247,6.6,7.8,45,0.00,,,0.00,tws,2013-12-01 22:00:00,
2013-12-01 15:10:00,69.4,47.7,30.14,SW,225,6.7,8.5,45,0.00,,,0.00,tws,2013-12-01 22:10:00,
2013-12-01 15:20:00,69.1,47.7,30.14,SW,225,5.6,7.5,45,0.00,,,0.00,tws,2013-12-01 22:20:00,
2013-12-01 15:30:00,68.9,47.5,30.14,North,360,5.9,7.3,46,0.00,,,0.00,tws,2013-12-01 22:30:00,
2013-12-01 15:40:00,68.1,46.9,30.14,South,180,5.5,7.2,46,0.00,,,0.00,tws,2013-12-01 22:40:00,
2013-12-01 15:50:00,67.3,46.5,30.14,SSW,202,5.6,6.8,46,0.00,,,0.00,tws,2013-12-01 22:50:00,
2013-12-01 16:00:00,67.0,46.3,30.14,SSE,157,6.6,8.5,46,0.00,,,0.00,tws,2013-12-01 23:00:00,
2013-12-01 16:10:00,66.7,46.6,30.14,SSW,202,6.2,8.0,47,0.00,,,0.00,tws,2013-12-01 23:10:00,
2013-12-01 16:20:00,66.4,46.4,30.14,South,180,5.7,8.3,48,0.00,,,0.00,tws,2013-12-01 23:20:00,
2013-12-01 16:30:00,66.1,46.0,30.14,SSE,157,4.8,6.7,47,0.00,,,0.00,tws,2013-12-01 23:30:00,
2013-12-01 16:40:00,65.7,45.6,30.15,South,180,4.7,5.5,47,0.00,,,0.00,tws,2013-12-01 23:40:00,
2013-12-01 16:50:00,65.2,45.6,30.14,SW,225,5.4,7.1,48,0.00,,,0.00,tws,2013-12-01 23:50:00,
2013-12-01 17:00:00,64.6,45.5,30.15,SW,225,4.1,5.8,49,0.00,,,0.00,tws,2013-12-02 00:00:00,
2013-12-01 17:10:00,64.0,45.3,30.15,SSE,157,3.7,5.5,50,0.00,,,0.00,tws,2013-12-02 00:10:00,
2013-12-01 17:20:00,63.4,45.4,30.15,South,180,2.3,3.6,51,0.00,,,0.00,tws,2013-12-02 00:20:00,
2013-12-01 17:30:00,62.9,45.5,30.16,North,0,1.3,2.5,52,0.00,,,0.00,tws,2013-12-02 00:30:00,
2013-12-01 17:40:00,62.4,45.6,30.15,East,90,0.9,2.3,53,0.00,,,0.00,tws,2013-12-02 00:40:00,
2013-12-01 17:50:00,61.7,45.6,30.17,NW,315,0.0,0.0,55,0.00,,,0.00,tws,2013-12-02 00:50:00,
2013-12-01 18:00:00,61.0,45.6,30.16,NNE,22,0.0,0.0,56,0.00,,,0.00,tws,2013-12-02 01:00:00,
2013-12-01 18:10:00,60.5,45.5,30.16,NE,45,0.5,1.5,57,0.00,,,0.00,tws,2013-12-02 01:10:00,
2013-12-01 18:20:00,59.9,45.5,30.16,NE,45,1.4,1.8,58,0.00,,,0.00,tws,2013-12-02 01:20:00,
2013-12-01 18:30:00,59.2,45.2,30.16,NW,315,1.0,1.5,59,0.00,,,0.00,tws,2013-12-02 01:30:00,
2013-12-01 18:40:00,58.7,45.0,30.17,NNW,337,1.4,1.7,60,0.00,,,0.00,tws,2013-12-02 01:40:00,
2013-12-01 18:50:00,58.2,45.1,30.17,NW,315,1.1,2.0,61,0.00,,,0.00,tws,2013-12-02 01:50:00,
2013-12-01 19:00:00,57.8,45.0,30.17,NW,315,1.5,2.5,62,0.00,,,0.00,tws,2013-12-02 02:00:00,
2013-12-01 19:10:00,57.3,44.9,30.17,NW,315,1.6,2.3,62,0.00,,,0.00,tws,2013-12-02 02:10:00,
2013-12-01 19:20:00,56.9,44.8,30.17,NW,315,1.9,2.7,63,0.00,,,0.00,tws,2013-12-02 02:20:00,
2013-12-01 19:30:00,56.5,44.9,30.17,WNW,292,2.6,2.9,64,0.00,,,0.00,tws,2013-12-02 02:30:00,
2013-12-01 19:40:00,56.3,44.8,30.17,WNW,292,3.0,3.7,65,0.00,,,0.00,tws,2013-12-02 02:40:00,
2013-12-01 19:50:00,56.2,45.0,30.17,NW,315,3.7,4.2,65,0.00,,,0.00,tws,2013-12-02 02:50:00,
2013-12-01 20:00:00,56.4,45.1,30.17,WNW,292,3.6,4.5,65,0.00,,,0.00,tws,2013-12-02 03:00:00,
2013-12-01 20:10:00,56.5,45.1,30.16,WNW,292,3.6,4.0,65,0.00,,,0.00,tws,2013-12-02 03:10:00,
2013-12-01 20:20:00,56.6,45.0,30.17,WNW,292,3.8,4.4,64,0.00,,,0.00,tws,2013-12-02 03:20:00,
2013-12-01 20:30:00,56.6,44.8,30.17,NW,315,3.9,4.6,64,0.00,,,0.00,tws,2013-12-02 03:30:00,
2013-12-01 20:40:00,56.6,44.8,30.18,West,270,3.6,4.4,64,0.00,,,0.00,tws,2013-12-02 03:40:00,
2013-12-01 20:50:00,56.6,44.6,30.18,SE,135,2.7,3.7,63,0.00,,,0.00,tws,2013-12-02 03:50:00,
2013-12-01 21:00:00,56.4,44.4,30.18,SSW,202,1.8,3.0,63,0.00,,,0.00,tws,2013-12-02 04:00:00,
2013-12-01 21:10:00,56.0,44.2,30.17,South,180,1.5,2.8,64,0.00,,,0.00,tws,2013-12-02 04:10:00,
2013-12-01 21:20:00,55.6,44.0,30.18,NW,315,0.4,1.3,64,0.00,,,0.00,tws,2013-12-02 04:20:00,
2013-12-01 21:30:00,55.1,43.9,30.17,ESE,112,0.2,1.7,65,0.00,,,0.00,tws,2013-12-02 04:30:00,
2013-12-01 21:40:00,54.5,43.7,30.18,ENE,67,1.4,1.9,66,0.00,,,0.00,tws,2013-12-02 04:40:00,
2013-12-01 21:50:00,53.9,43.4,30.18,ENE,67,0.9,1.5,67,0.00,,,0.00,tws,2013-12-02 04:50:00,
2013-12-01 22:00:00,53.5,43.6,30.17,ESE,112,0.3,1.2,68,0.00,,,0.00,tws,2013-12-02 05:00:00,
2013-12-01 22:10:00,53.1,43.6,30.17,NE,45,0.4,1.5,69,0.00,,,0.00,tws,2013-12-02 05:10:00,
2013-12-01 22:20:00,52.7,43.5,30.18,NNW,337,0.0,0.0,70,0.00,,,0.00,tws,2013-12-02 05:20:00,
2013-12-01 22:30:00,52.3,43.5,30.17,SW,225,0.0,0.0,71,0.00,,,0.00,tws,2013-12-02 05:30:00,
2013-12-01 22:40:00,52.0,43.4,30.18,NNW,337,0.0,0.0,72,0.00,,,0.00,tws,2013-12-02 05:40:00,
2013-12-01 22:50:00,51.6,43.3,30.18,NW,315,0.2,1.6,72,0.00,,,0.00,tws,2013-12-02 05:50:00,
2013-12-01 23:00:00,51.3,43.2,30.18,NW,315,1.6,2.4,73,0.00,,,0.00,tws,2013-12-02 06:00:00,
2013-12-01 23:10:00,51.0,43.2,30.18,WNW,292,2.7,3.3,74,0.00,,,0.00,tws,2013-12-02 06:10:00,
2013-12-01 23:20:00,50.8,43.1,30.17,NW,315,2.5,3.1,74,0.00,,,0.00,tws,2013-12-02 06:20:00,
2013-12-01 23:30:00,50.7,43.0,30.18,North,0,2.3,2.8,74,0.00,,,0.00,tws,2013-12-02 06:30:00,
2013-12-01 23:40:00,50.7,43.1,30.17,SW,225,1.9,3.0,75,0.00,,,0.00,tws,2013-12-02 06:40:00,
2013-12-01 23:50:00,50.6,43.1,30.18,NW,315,1.8,2.6,75,0.00,,,0.00,tws,2013-12-02 06:50:00,